Location: Unspecified
(0.0000°N, 0.0000°E)
Time: 18:53:36
(UTC+00:00)

Transit 2A - Pass Details

Date: 31 May 2019
Orbit: 596 x 962 km, 66.7° (Epoch: 18 August)

Event Time Altitude Azimuth Distance (km) Brightness Sun altitude
Rises 14:59:59 0° 7° (N) 3,200 9.5 40.5°
Reaches altitude 10° 15:03:11 10° 26° (NNE) 2,202 8.5 39.8°
Maximum altitude 15:06:29 18° 68° (ENE) 1,669 7.6 39.1°
Drops below altitude 10° 15:09:37 10° 110° (ESE) 2,068 7.9 38.4°
Sets 15:12:28 0° 130° (SE) 2,928 8.5 37.8°
